Content
SEND FEEDBACK

Daily
Averages
Monthly
Summary
United States of America

GARFIELD, UTAH


Home > North America > United States > Utah
Elevation: 1606 meters     Latitude: 40 43N     Longitude: 112 12W

WEATHER
 
SELECT A DAY
Number of Records: 355,148;   Date Range: 1/1/95 - 7/22/14
 
SHARE

PRINT THIS DATA

[ ← Previous Day ]
WEATHER ALMANAC - 31 JANUARY, 2013
[ Next Day → ]
[ °F ]   °C
Weather ElementAverageHighLow
Temperature3.6 °C6.7 °C (3:53 pm)1.1 °C (5:53 am)
Dewpoint-1.7 °C-0.6 °C (9:53 am)-2.8 °C (1:53 pm)
Humidity69.7 %85 % (5:53 am)51 % (3:53 pm)
Barometer1026.4 hPa1028.8 hPa (10:53 am)1024.4 hPa (1:53 am)
Wind Speed7.1 km/h16.7 km/h (11:53 pm)
Weather ElementAverage
Visibility16.1 km
Wind DirectionESE (104.3 °)

Weather ElementTotal
Precipitation---
Heating Degree Days14.4 (Base 18.3)
Averaged from 23 records on 31 January, 2013
WEATHER CONDITIONS BREAKOUT
WIND DIRECTION BREAKOUT
WEATHER BY HOUR - 31 JANUARY, 2013
[ °F ]   °C
Local TimeTemperatureDewpointHumidityBarometerVisibilityWind DirectionWind SpeedGust SpeedPrecipitationEventsConditions
1:53 AM2.8 °C-1.7 °C73 %1024.4 hPa16.1 kmWNW (290°)5.6 km/hMostly Cloudy
2:53 AM2.2 °C-1.7 °C76 %1025.1 hPa16.1 kmSouth (190°)5.6 km/hOvercast
3:53 AM2 °C-2 °C75 %1025.1 hPa16.1 kmEast (80°)7.4 km/hOvercast
4:53 AM1.7 °C-1.1 °C82 %1026.4 hPa16.1 kmCalmOvercast
5:53 AM1.1 °C-1.1 °C85 %1026.8 hPa16.1 kmESE (110°)9.3 km/hOvercast
6:53 AM1.7 °C-1.7 °C78 %1027.4 hPa16.1 kmESE (120°)9.3 km/hMostly Cloudy
7:53 AM1.7 °C-1.7 °C78 %1027.4 hPa16.1 kmSE (140°)9.3 km/hMostly Cloudy
8:53 AM1.1 °C-1.7 °C82 %1028.4 hPa16.1 kmESE (120°)7.4 km/hMostly Cloudy
9:53 AM2.8 °C-0.6 °C79 %1027.8 hPa16.1 kmSE (140°)7.4 km/hMostly Cloudy
10:53 AM3.9 °C-0.6 °C73 %1028.8 hPa16.1 kmSE (130°)7.4 km/hMostly Cloudy
11:53 AM5 °C-1.1 °C65 %1028.1 hPa16.1 kmCalmMostly Cloudy
12:53 PM5.6 °C-1.7 °C60 %1027.1 hPa16.1 kmESE (120°)7.4 km/hMostly Cloudy
1:53 PM6.1 °C-2.8 °C53 %1026.4 hPa16.1 kmSouth (170°)5.6 km/hMostly Cloudy
2:53 PM6.1 °C-2.2 °C56 %1026.1 hPa16.1 kmCalmMostly Cloudy
3:53 PM6.7 °C-2.8 °C51 %1026.1 hPa16.1 kmCalmMostly Cloudy
4:53 PM5 °C-1.7 °C62 %1026.1 hPa16.1 kmCalmMostly Cloudy
5:53 PM5 °C-1.7 °C62 %1026.1 hPa16.1 kmCalmMostly Cloudy
6:53 PM5 °C-1.7 °C62 %1026.1 hPa16.1 kmSSE (160°)7.4 km/hMostly Cloudy
7:53 PM3.3 °C-1.1 °C73 %1026.1 hPa16.1 kmSE (140°)14.8 km/hMostly Cloudy
8:53 PM3.3 °C-1.1 °C73 %1025.1 hPa16.1 kmESE (120°)14.8 km/hMostly Cloudy
9:53 PM3.3 °C-1.7 °C70 %1025.7 hPa16.1 kmESE (110°)13 km/hMostly Cloudy
10:53 PM3.3 °C-2.2 °C68 %1025.4 hPa16.1 kmESE (120°)14.8 km/hMostly Cloudy
11:53 PM3.3 °C-2.2 °C68 %1025.1 hPa16.1 kmSE (140°)16.7 km/hMostly Cloudy
Hourly data recorded from KSLC, located 0 kilometers away from Garfield, Utah







STORIES FROM OUR PARTNERS